This demonstration page uses our WeatherBlox Daily Observations layout. Learn more.

Left ArrowRight Arrow

Hourly Observations for November 9, 2021

Temp ( °F °C ) Dew Point ( °F °C ) Humidity (%) Winds ( mph kmh ) Pressure ( in mb ) Visibility ( mi km ) Precip ( " mm )
12:15 am 00:15 Clear 40 4.6 31 -0.3 71 71 Calm 30.32 1027 10 16 0.00 0.00
12:35 am 00:35 Clear 42 5.6 30 -1.1 62 62 ENE 6 9 30.30 1026 10 16 0.00 0.00
12:55 am 00:55 Partly Cloudy 43 5.9 29 -1.4 60 60 ESE 7 11 30.29 1026 10 16 0.00 0.00
1:15 am 01:15 Mostly Cloudy 43 6 29 -1.5 59 59 ENE 7 11 30.28 1025 10 16 0.00 0.00
1:35 am 01:35 Partly Cloudy 42 5.5 28 -2 59 59 NE 13 20 30.24 1024 10 16 0.00 0.00
1:55 am 01:55 Partly Cloudy 43 5.9 27 -3 53 53 ENE 7 11 30.25 1024 10 16 0.00 0.00
2:15 am 02:15 Partly Cloudy 42 5.7 27 -2.7 55 55 E 3 6 30.27 1025 10 16 0.00 0.00
2:35 am 02:35 Partly Cloudy 41 4.9 29 -1.5 64 64 WNW 6 9 30.32 1027 10 16 0.00 0.00
2:55 am 02:55 Partly Cloudy 40 4.5 30 -0.9 68 68 WNW 7 11 30.33 1027 10 16 0.00 0.00
3:15 am 03:15 Partly Cloudy 39 4.1 30 -1 70 70 WNW 7 11 30.34 1027 10 16 0.00 0.00
3:35 am 03:35 Partly Cloudy 38 3.3 30 -1 74 74 NNW 5 7 30.36 1028 10 16 0.00 0.00
3:55 am 03:55 Partly Cloudy 37 2.7 30 -1.2 76 76 NNW 8 13 30.36 1028 10 16 0.00 0.00
4:15 am 04:15 Clear 35 1.8 29 -1.5 79 79 N 8 13 30.36 1028 10 16 0.00 0.00
4:35 am 04:35 Clear 34 1 28 -2.1 80 80 N 5 7 30.37 1028 10 16 0.00 0.00
4:55 am 04:55 Clear 32 0.2 28 -2.5 82 82 Calm 30.38 1029 10 16 0.00 0.00
5:15 am 05:15 Clear 33 0.4 27 -2.8 79 79 Calm 30.36 1028 10 16 0.00 0.00
5:35 am 05:35 Clear 33 0.6 26 -3.1 77 77 Calm 30.36 1028 10 16 0.00 0.00
5:55 am 05:55 Clear 31 -0.6 27 -3 84 84 W 5 7 30.37 1029 10 16 0.00 0.00
6:15 am 06:15 Clear 30 -1 27 -3 86 86 W 6 9 30.38 1029 10 16 0.00 0.00
6:35 am 06:35 Partly Cloudy 30 -0.9 27 -3 86 86 NW 7 11 30.39 1029 10 16 0.00 0.00
6:55 am 06:55 Cloudy 33 0.5 29 -1.6 86 86 NW 5 7 30.36 1028 10 16 0.00 0.00
7:15 am 07:15 Cloudy 35 1.7 31 -0.7 84 84 W 3 6 30.36 1028 10 16 0.00 0.00
7:35 am 07:35 Cloudy 36 2.1 31 -0.7 82 82 WNW 5 7 30.34 1027 10 16 0.00 0.00
7:55 am 07:55 Mostly Cloudy 36 2 30 -1 81 81 W 5 7 30.35 1028 10 16 0.00 0.00
8:15 am 08:15 Sunny 35 1.8 30 -1 82 82 WNW 3 6 30.36 1028 10 16 0.00 0.00
8:35 am 08:35 Sunny 36 2.2 31 -0.6 82 82 Calm 30.37 1028 10 16 0.00 0.00
8:55 am 08:55 Sunny 38 3.3 31 -0.7 75 75 Calm 30.36 1028 10 16 0.00 0.00
9:15 am 09:15 Sunny 40 4.3 31 -0.6 71 71 Calm 30.35 1028 10 16 0.00 0.00
9:35 am 09:35 Sunny 43 6.3 30 -1.1 59 59 NE 3 6 30.33 1027 10 16 0.00 0.00
9:55 am 09:55 Sunny 47 8.1 29 -1.9 50 50 E 7 11 30.30 1026 10 16 0.00 0.00
10:15 am 10:15 Sunny 48 8.8 27 -2.8 44 44 E 6 9 30.29 1026 10 16 0.00 0.00
10:35 am 10:35 Sunny 48 9.1 27 -2.9 43 43 ENE 6 9 30.28 1025 10 16 0.00 0.00
10:55 am 10:55 Sunny 49 9.6 28 -2.1 44 44 ENE 6 9 30.27 1025 10 16 0.00 0.00
11:15 am 11:15 Sunny 51 10.3 28 -2.5 41 41 ENE 6 9 30.27 1025 10 16 0.00 0.00
11:35 am 11:35 Sunny 51 10.6 27 -3 39 39 E 5 7 30.26 1025 10 16 0.00 0.00
11:55 am 11:55 Sunny 53 11.4 27 -2.8 37 37 E 5 7 30.24 1024 10 16 0.00 0.00
12:15 pm 12:15 Sunny 53 11.7 27 -2.8 37 37 ENE 6 9 30.23 1024 10 16 0.00 0.00
12:35 pm 12:35 Sunny 54 12.2 28 -2.5 36 36 ENE 5 7 30.20 1023 10 16 0.00 0.00
12:55 pm 12:55 Sunny 55 12.6 28 -2.4 35 35 E 8 13 30.18 1022 10 16 0.00 0.00
1:15 pm 13:15 Sunny 55 12.8 29 -1.5 37 37 E 6 9 30.17 1022 10 16 0.00 0.00
1:35 pm 13:35 Sunny 56 13.1 30 -1.1 38 38 E 5 7 30.15 1021 10 16 0.00 0.00
1:55 pm 13:55 Sunny 56 13.6 30 -1.2 36 36 SE 8 13 30.14 1021 10 16 0.00 0.00
2:15 pm 14:15 Sunny 56 13.6 29 -1.9 34 34 SE 7 11 30.12 1020 10 16 0.00 0.00
2:35 pm 14:35 Sunny 57 13.9 28 -2.1 33 33 ESE 7 11 30.11 1019 10 16 0.00 0.00
2:55 pm 14:55 Sunny 57 13.7 28 -2 34 34 ESE 9 15 30.10 1019 10 16 0.00 0.00
3:15 pm 15:15 Sunny 57 13.8 29 -1.6 35 35 ESE 10 17 30.09 1019 10 16 0.00 0.00
3:35 pm 15:35 Sunny 56 13.6 29 -1.9 34 34 ESE 9 15 30.09 1019 10 16 0.00 0.00
3:55 pm 15:55 Sunny 56 13.6 28 -2.2 34 34 SE 8 13 30.09 1019 10 16 0.00 0.00
4:15 pm 16:15 Sunny 56 13.2 28 -2.1 35 35 ESE 10 17 30.08 1019 10 16 0.00 0.00
4:35 pm 16:35 Sunny 55 12.5 28 -2 37 37 SE 10 17 30.08 1019 10 16 0.00 0.00
4:55 pm 16:55 Sunny 53 11.9 29 -1.9 39 39 SE 8 13 30.08 1019 10 16 0.00 0.00
5:15 pm 17:15 Sunny 51 10.6 31 -0.7 46 46 ESE 7 11 30.09 1019 10 16 0.00 0.00
5:35 pm 17:35 Clear 50 10.1 31 -0.7 47 47 SE 6 9 30.09 1019 10 16 0.00 0.00
5:55 pm 17:55 Clear 49 9.6 32 -0.2 51 51 SE 6 9 30.09 1019 10 16 0.00 0.00
6:15 pm 18:15 Clear 48 9 32 0 54 54 ESE 7 11 30.09 1019 10 16 0.00 0.00
6:35 pm 18:35 Clear 48 8.7 32 0 55 55 ESE 7 11 30.08 1019 10 16 0.00 0.00
6:55 pm 18:55 Clear 47 8.5 32 0 55 55 E 8 13 30.08 1018 10 16 0.00 0.00
7:15 pm 19:15 Clear 47 8.2 32 0 57 57 ESE 8 13 30.08 1019 10 16 0.00 0.00
7:35 pm 19:35 Clear 46 7.9 32 0 58 58 ESE 8 13 30.08 1019 10 16 0.00 0.00
7:55 pm 19:55 Clear 46 7.8 32 0 58 58 ESE 7 11 30.07 1018 10 16 0.00 0.00
8:15 pm 20:15 Clear 45 7.2 32 -0.1 60 60 ESE 6 9 30.08 1019 10 16 0.00 0.00
8:35 pm 20:35 Clear 45 7 32 0 61 61 SE 6 9 30.08 1019 10 16 0.00 0.00
8:55 pm 20:55 Clear 44 6.5 32 -0.1 63 63 ESE 6 9 30.07 1018 10 16 0.00 0.00
9:15 pm 21:15 Clear 44 6.6 31 -0.3 62 62 SE 7 11 30.06 1018 10 16 0.00 0.00
9:35 pm 21:35 Clear 43 6.2 32 -0.1 64 64 SE 6 9 30.07 1018 10 16 0.00 0.00
9:55 pm 21:55 Clear 42 5.7 32 0 67 67 ESE 7 11 30.06 1018 10 16 0.00 0.00
10:15 pm 22:15 Clear 43 5.9 32 0 66 66 SE 8 13 30.05 1018 10 16 0.00 0.00
10:35 pm 22:35 Clear 42 5.7 32 0 67 67 SE 8 13 30.04 1017 10 16 0.00 0.00
10:55 pm 22:55 Clear 42 5.5 32 0.2 69 69 SE 5 7 30.05 1018 10 16 0.00 0.00
11:15 pm 23:15 Clear 40 4.5 32 0.2 74 74 SSE 3 6 30.06 1018 10 16 0.00 0.00
11:35 pm 23:35 Mostly Cloudy 39 3.8 32 0.1 77 77 S 3 6 30.06 1018 10 16 0.00 0.00
11:55 pm 23:55 Cloudy 42 5.4 35 1.5 76 76 ESE 5 7 30.02 1017 10 16 0.00 0.00

Powered by AerisWeather